Regional Weather Roundup
Issued by NWS Sterling, VA

Home | Current Version | Previous Version | Text Only | Print | Product List | Glossary On
Versions: 1 2 3 4 5 6 7 8 9 10 11 12 13 14 15 16 17 18 19 20 21 22 23 24 25 26 27 28 29 30 31 32 33 34 35 36 37 38 39 40 41 42 43 44 45 46 47 48 49 50
000
ASUS41 KLWX 310210
RWRLWX

REGIONAL WEATHER ROUNDUP
NATIONAL WEATHER SERVICE BALTIMORE MD/WASHINGTON DC
1000 PM EDT SAT AUG 30 2014

Note: "FAIR" indicates few or no clouds below 12,000 feet
with no significant weather and/or obstructions to visibility.
 TC=TEMPERATURE CELSIUS

 * =Non NWS site. Station does not report precipitation (e.g. rain,
    snow, etc.), thunder, or fog.

DCZ001-MDZ009-015-VAZ040>042-051-053>054-310300-
WASHINGTON METRO

CITY           SKY/WX    TMP DP  RH WIND       PRES   REMARKS
WASHINGTON NAT MOCLDY    79  70  74 SE6       30.14R
DULLES         PTCLDY    76  70  82 SE7       30.13S
ANDREWS AFB    MOCLDY    73  71  91 SE7       30.15R
QUANTICO       LGT RAIN  79  73  82 S12       30.14R
COLLEGE PARK*  MOCLDY    77  70  78 SE5       30.14S
LEESBURG*      MOCLDY    79  73  83 S7        30.14S
MANASSAS*      MOCLDY    75  73  94 SE5       30.13S
GAITHERSBURG*  PTCLDY    73  68  83 SE3       30.18S

$$

MDZ006>007-011-014-310300-
BALTIMORE METRO

CITY           SKY/WX    TMP DP  RH WIND       PRES   REMARKS
BWI AIRPORT    CLOUDY    76  70  82 S3        30.14R
MD SCIENCE CTR   N/A     78  69  73 MISG      30.15R
MARTIN STATE   CLOUDY    79  72  78 SE8       30.16R
ANNAPOLIS      CLOUDY    78  70  76 S9G20     30.14R
FORT MEADE*    CLOUDY    73  68  83 CALM      30.17R

$$

MDZ012-015-019>023-310300-
MARYLAND EASTERN SHORE

CITY           SKY/WX    TMP DP  RH WIND       PRES   REMARKS
OCEAN CITY     CLEAR     75  69  81 S5        30.17S
SALISBURY      CLEAR     72  65  78 E3        30.17S
BAY BRIDGE AP*   N/A     77  68  73 SE9       30.15R
CAMBRIDGE*     PTCLDY    72  66  83 SE6       30.15S

$$

MDZ017>025-310300-
SOUTHERN MARYLAND

CITY           SKY/WX    TMP DP  RH WIND       PRES   REMARKS
PATUXENT RIVER CLEAR     76  71  85 S8        30.14S
ST INIGOES     CLEAR     77  71  82 SE9       30.14R
LEONARDTOWN*   CLEAR     75  70  83 SE6       30.16S

$$

MDZ003>005-310300-
NORTH CENTRAL MARYLAND

CITY           SKY/WX    TMP DP  RH WIND       PRES   REMARKS
FREDERICK*     MOCLDY    75  72  88 CALM      30.15S
HAGERSTOWN APT CLOUDY    76  69  79 SE3       30.13S
WESTMINSTER*   CLOUDY    75  70  83 SE8       30.15S

$$

MDZ501>502-310300-
WESTERN MARYLAND

CITY           SKY/WX    TMP DP  RH WIND       PRES   REMARKS
OAKLAND*         N/A     66 N/A N/A SE7       30.21R
CUMBERLAND*    PTCLDY    72  68  88 CALM      30.15S

$$

VAZ025>031-310300-
SHENANDOAH VALLEY

CITY           SKY/WX    TMP DP  RH WIND       PRES   REMARKS
WINCHESTER*    MOCLDY    77  70  78 S6        30.12S
STAUNTON*      CLOUDY    77  69  74 S6        30.18S

$$

WVZ021-048>050-054>055-310300-
EASTERN WEST VIRGINIA PANHANDLE

CITY           SKY/WX    TMP DP  RH WIND       PRES   REMARKS
MARTINSBURG    CLOUDY    76  69  79 CALM      30.12S
PETERSBURG*    NOT AVBL

$$

VAZ036>039-050-310300-
CENTRAL FOOTHILLS

CITY           SKY/WX    TMP DP  RH WIND       PRES   REMARKS
CHARLOTTESVILL PTCLDY    75  73  93 CALM      30.14R
ORANGE*        CLEAR     72  70  94 CALM      30.15S

$$

VAZ055>057-310300-
NORTH AND CENTRAL PIEDMONT

CITY           SKY/WX    TMP DP  RH WIND       PRES   REMARKS
FREDERICKSBRG* PTCLDY    79  73  82 CALM      30.13R
STAFFORD*      PTCLDY    76  76 100 CALM      30.17S

$$

NCZ024-NYZ072-PAZ021-071-VAZ022-071-310300-
OTHER REGIONAL OBSERVATIONS

CITY           SKY/WX    TMP DP  RH WIND       PRES   REMARKS
NEW YORK CITY  CLOUDY    74  63  68 VRB6      30.19S
PHILADELPHIA   CLOUDY    75  62  64 S6        30.17R
PITTSBURGH     MOCLDY    78  67  68 S5        30.06R
ROANOKE        PTCLDY    78  71  79 SE6       30.18S
RICHMOND       PTCLDY    78  73  84 SE8       30.14S
RALEIGH        PTCLDY    79  71  76 SE6       30.16R

$$

ANZ530>537-310300-
MARINE OBSERVATIONS

STATION/POSITION TIME  TEMP    WIND        PRES
                       AIR SEA DIR/SP/G
                 (UTC) (F)     (DEG/KT/KT) (MB)
THOMAS PT LIGHT  0200   77 77  170/ 16/ 18 1021.6R
BALT KEY BRIDGE  0200          150/ 10/ 12 1020.3S
COVE POINT       0200   77     180/ 18/ 20 1020.6R
LEWISETTA        0200   77 79  170/  9/ 12 1020.3S
SOLOMONS ISLAND  0200      79                N/A
PINEY POINT      0200          180/ 13/ 15   N/A

$$



USA.gov is the U.S. government's official web portal to all federal, state and local government web resources and services.